This is the latest recevied weather packets stored in our database for station/object K7KAZ. If no packets are shown the sender has not sent any weather packets the latest 10 day(s).
| Time | Temp. | Humidity | Pressure | Rain* | Wind** | Luminosity | Snow |
|---|---|---|---|---|---|---|---|
| 1777131976 | 22.22° C | 28% | 1012.3 hPa | 0 mm | - | 241 W/m² | - |
| 1777131675 | 22.78° C | 28% | 1012.5 hPa | 0 mm | - | 262 W/m² | - |
| 1777131369 | 22.22° C | 29% | 1012.2 hPa | 0 mm | - | 265 W/m² | - |
| 1777131063 | 21.67° C | 29% | 1012.3 hPa | 0 mm | - | 325 W/m² | - |
| 1777130759 | 21.67° C | 30% | 1012.4 hPa | 0 mm | - | 313 W/m² | - |
| 1777130455 | 21.11° C | 30% | 1012.5 hPa | 0 mm | - | 214 W/m² | - |
| 1777130151 | 21.11° C | 29% | 1012.5 hPa | 0 mm | - | 201 W/m² | - |
| 1777129847 | 21.11° C | 30% | 1012.2 hPa | 0 mm | - | 175 W/m² | - |
| 1777129543 | 21.11° C | 30% | 1012.4 hPa | 0 mm | - | 213 W/m² | - |
| 1777129242 | 21.11° C | 30% | 1012.6 hPa | 0 mm | - | 229 W/m² | - |
| 1777128938 | 21.11° C | 30% | 1012.3 hPa | 0 mm | - | 157 W/m² | - |
| 1777128634 | 20.56° C | 30% | 1012.4 hPa | 0 mm | - | 154 W/m² | - |
| 1777128333 | 21.11° C | 30% | 1012.5 hPa | 0 mm | - | 161 W/m² | - |
| 1777128029 | 20.56° C | 31% | 1012.4 hPa | 0 mm | - | 214 W/m² | - |
| 1777127727 | 20.56° C | 30% | 1012.3 hPa | 0 mm | - | 179 W/m² | - |
| 1777127423 | 20.56° C | 31% | 1012.3 hPa | 0 mm | - | 141 W/m² | - |
| 1777127119 | 20.56° C | 30% | 1012.5 hPa | 0 mm | - | 159 W/m² | - |
| 1777126816 | 20.56° C | 30% | 1012.3 hPa | 0 mm | - | 130 W/m² | - |
| 1777126512 | 20.56° C | 30% | 1012.4 hPa | 0 mm | - | 133 W/m² | - |
| 1777126208 | 20° C | 31% | 1012.3 hPa | 0 mm | - | 116 W/m² | - |
| 1777125904 | 20° C | 31% | 1012.3 hPa | 0 mm | - | 113 W/m² | - |
| 1777125600 | 20° C | 31% | 1012.3 hPa | 0 mm | - | 97 W/m² | - |
| 1777125296 | 19.44° C | 32% | 1012.3 hPa | 0 mm | - | 86 W/m² | - |
| 1777124996 | 19.44° C | 32% | 1012.2 hPa | 0 mm | - | 67 W/m² | - |
| 1777124693 | 19.44° C | 32% | 1011.9 hPa | 0 mm | - | 59 W/m² | - |
* Rain latest hour (hover to see other rain measurements)
** Current wind speed in m/s (hover to see current wind gust speed)